Weather History for KAQP - February, 2013

Change the Weather History Date:

Thursday, February 21, 2013

  Actual Average Record
Temperature  
Mean Temperature 6 °F -  
Max Temperature 19 °F 26 °F 46 °F (2007)
Min Temperature -7 °F 10 °F -25 °F (2001)
Degree Days  
Heating Degree Days 59    
Moisture  
Dew Point 3 °F    
Average Humidity 74    
Maximum Humidity 86    
Minimum Humidity 63    
Precipitation  
Precipitation 0.00 in - - ()
Sea Level Pressure  
Sea Level Pressure 30.27 in    
Wind  
Wind Speed 5 mph (ENE)    
Max Wind Speed 12 mph    
Max Gust Speed -    
Visibility 10 miles    
Events Snow    
Averages and records for this station are not official NWS values.
T = Trace of Precipitation, MM = Missing Value Source: NWS Daily Summary

Daily Weather History Graph

Daily Weather History Graph

Search for Another Location

Airport or City:

Trip Planner

Search our weather history database for the weather conditions in past years. The results will help you decide how hot, cold, wet, or windy it might be!

Date:

Astronomy

Feb. 21, 2013 Rise Set
Actual Time 7:15 AM CST 6:00 PM CST
Civil Twilight 6:45 AM CST 6:30 PM CST
Nautical Twilight 6:11 AM CST 7:04 PM CST
Astronomical Twilight 5:37 AM CST 7:38 PM CST
Moon 2:09 PM CST (2/21) 4:28 AM CST (2/21)
Length of Visible Light 11h 45m
Length of Day
10h 45m
Waxing Gibbous, 84% of the Moon is Illuminated
Feb 21
Waxing Gibbous
Feb 25
Full
Mar 4
Last Quarter
Mar 11
New
Mar 19
First Quarter

Hourly Weather History & Observations

Time (CST) Temp. Windchill Dew Point Humidity Pressure Visibility Wind Dir Wind Speed Gust Speed Precip Events Conditions
12:13 AM -2.2 °F - -7.6 °F 78% 30.35 in 10.0 mi Calm Calm - N/A   Clear
12:34 AM -2.2 °F - -7.6 °F 78% 30.36 in 10.0 mi Calm Calm - N/A   Clear
12:54 AM -2.2 °F - -7.6 °F 78% 30.36 in 10.0 mi Calm Calm - N/A   Clear
1:13 AM -2.2 °F - -7.6 °F 78% 30.36 in 10.0 mi Calm Calm - N/A   Clear
1:34 AM -2.2 °F - -7.6 °F 78% 30.37 in 10.0 mi Calm Calm - N/A   Clear
1:53 AM -5.8 °F -16.7 °F -9.4 °F 84% 30.37 in 10.0 mi NNE 4.6 mph - N/A   Clear
2:14 AM -5.8 °F - -9.4 °F 84% 30.38 in 10.0 mi Calm Calm - N/A   Clear
2:33 AM -5.8 °F - -9.4 °F 84% 30.38 in 10.0 mi Calm Calm - N/A   Clear
2:53 AM -4.0 °F -12.4 °F -7.6 °F 85% 30.37 in 10.0 mi ENE 3.5 mph - N/A   Clear
3:13 AM -5.8 °F -14.5 °F -9.4 °F 84% 30.37 in 10.0 mi ENE 3.5 mph - N/A   Clear
3:33 AM -7.6 °F -20.6 °F -11.2 °F 84% 30.36 in 10.0 mi ENE 5.8 mph - N/A   Clear
3:53 AM -7.6 °F -16.5 °F -11.2 °F 84% 30.35 in 10.0 mi East 3.5 mph - N/A   Clear
4:13 AM -5.8 °F -16.7 °F -11.2 °F 77% 30.34 in 10.0 mi ENE 4.6 mph - N/A   Clear
4:34 AM -4.0 °F -20.2 °F -7.6 °F 85% 30.31 in 10.0 mi ENE 9.2 mph - N/A   Clear
4:53 AM -0.4 °F -13.4 °F -5.8 °F 78% 30.31 in 10.0 mi East 6.9 mph - N/A   Clear
5:13 AM -0.4 °F -15.7 °F -5.8 °F 78% 30.30 in 10.0 mi East 9.2 mph - N/A   Clear
5:33 AM 1.4 °F -13.5 °F -4.0 °F 78% 30.28 in 10.0 mi East 9.2 mph - N/A   Clear
5:53 AM 1.4 °F -11.3 °F -4.0 °F 78% 30.29 in 10.0 mi East 6.9 mph - N/A   Clear
6:14 AM -0.4 °F -10.4 °F -5.8 °F 78% 30.31 in 10.0 mi ESE 4.6 mph - N/A   Clear
6:33 AM -0.4 °F -13.4 °F -5.8 °F 78% 30.35 in 10.0 mi SE 6.9 mph - N/A   Clear
6:54 AM 1.4 °F -11.3 °F -4.0 °F 78% 30.37 in 10.0 mi SE 6.9 mph - N/A   Clear
7:13 AM 1.4 °F -8.3 °F -2.2 °F 85% 30.37 in 10.0 mi SE 4.6 mph - N/A   Scattered Clouds
7:34 AM -0.4 °F -13.4 °F -5.8 °F 78% 30.36 in 10.0 mi East 6.9 mph - N/A   Scattered Clouds
7:53 AM -0.4 °F -10.4 °F -5.8 °F 78% 30.35 in 10.0 mi East 4.6 mph - N/A   Clear
8:13 AM 1.4 °F -11.3 °F -4.0 °F 78% 30.34 in 10.0 mi East 6.9 mph - N/A   Clear
8:33 AM 3.2 °F -10.3 °F -2.2 °F 78% 30.33 in 10.0 mi East 8.1 mph - N/A   Clear
8:53 AM 6.8 °F -7.8 °F -0.4 °F 72% 30.32 in 10.0 mi East 10.4 mph - N/A   Clear
9:13 AM 6.8 °F -4.8 °F -0.4 °F 72% 30.32 in 10.0 mi East 6.9 mph - N/A   Clear
9:35 AM 8.6 °F -3.7 °F 1.4 °F 73% 30.31 in 10.0 mi East 8.1 mph - N/A   Scattered Clouds
9:53 AM 10.4 °F -2.4 °F 1.4 °F 67% 30.33 in 10.0 mi ESE 9.2 mph - N/A   Scattered Clouds
10:13 AM 10.4 °F -2.4 °F 3.2 °F 73% 30.33 in 10.0 mi ESE 9.2 mph - N/A   Scattered Clouds
10:33 AM 12.2 °F -1.0 °F 3.2 °F 67% 30.33 in 10.0 mi ESE 10.4 mph - N/A   Scattered Clouds
10:53 AM 12.2 °F -1.0 °F 5.0 °F 73% 30.34 in 10.0 mi ESE 10.4 mph - N/A   Scattered Clouds
11:13 AM 14.0 °F 2.0 °F 6.8 °F 73% 30.33 in 10.0 mi East 9.2 mph - N/A   Mostly Cloudy
11:34 AM 15.8 °F 4.2 °F 6.8 °F 68% 30.33 in 10.0 mi East 9.2 mph - N/A   Mostly Cloudy
12:14 PM 15.8 °F 4.2 °F 8.6 °F 73% 30.30 in 10.0 mi ESE 9.2 mph - N/A   Mostly Cloudy
12:33 PM 15.8 °F 4.2 °F 8.6 °F 73% 30.29 in 10.0 mi East 9.2 mph - N/A   Mostly Cloudy
12:53 PM 17.6 °F 6.4 °F 8.6 °F 68% 30.29 in 10.0 mi East 9.2 mph - N/A   Overcast
1:14 PM 17.6 °F 6.4 °F 8.6 °F 68% 30.28 in 10.0 mi ESE 9.2 mph - N/A   Overcast
1:33 PM 17.6 °F 7.3 °F 8.6 °F 68% 30.27 in 10.0 mi East 8.1 mph - N/A   Overcast
1:54 PM 17.6 °F 6.4 °F 8.6 °F 68% 30.26 in 10.0 mi East 9.2 mph - N/A   Overcast
2:13 PM 17.6 °F 5.7 °F 8.6 °F 68% 30.24 in 10.0 mi East 10.4 mph - N/A   Overcast
2:33 PM 19.4 °F 7.9 °F 10.4 °F 68% 30.24 in 10.0 mi East 10.4 mph - N/A   Scattered Clouds
2:53 PM 19.4 °F 7.9 °F 10.4 °F 68% 30.22 in 10.0 mi NE 10.4 mph - N/A   Scattered Clouds
3:13 PM 19.4 °F 7.9 °F 10.4 °F 68% 30.21 in 10.0 mi NE 10.4 mph - N/A   Scattered Clouds
3:33 PM 19.4 °F 7.9 °F 10.4 °F 68% 30.21 in 10.0 mi ENE 10.4 mph - N/A   Scattered Clouds
3:53 PM 19.4 °F 7.9 °F 10.4 °F 68% 30.21 in 10.0 mi ENE 10.4 mph - N/A   Scattered Clouds
4:33 PM 19.4 °F 10.4 °F 10.4 °F 68% 30.21 in 10.0 mi ENE 6.9 mph - N/A   Clear
4:53 PM 17.6 °F 9.3 °F 10.4 °F 73% 30.21 in 10.0 mi ENE 5.8 mph - N/A   Scattered Clouds
5:13 PM 17.6 °F 8.2 °F 10.4 °F 73% 30.20 in 10.0 mi ENE 6.9 mph - N/A   Mostly Cloudy
5:33 PM 17.6 °F 10.7 °F 10.4 °F 73% 30.19 in 10.0 mi NE 4.6 mph - N/A   Scattered Clouds
5:54 PM 17.6 °F 9.3 °F 10.4 °F 73% 30.19 in 10.0 mi NE 5.8 mph - N/A   Clear
6:13 PM 17.6 °F 9.3 °F 12.2 °F 79% 30.19 in 10.0 mi NE 5.8 mph - N/A   Scattered Clouds
6:33 PM 17.6 °F 6.4 °F 10.4 °F 73% 30.19 in 10.0 mi ENE 9.2 mph - N/A   Scattered Clouds
6:53 PM 17.6 °F 7.3 °F 10.4 °F 73% 30.19 in 10.0 mi ENE 8.1 mph - N/A   Scattered Clouds
7:14 PM 17.6 °F 5.7 °F 10.4 °F 73% 30.17 in 10.0 mi ENE 10.4 mph - N/A   Scattered Clouds
7:34 PM 17.6 °F 6.4 °F 10.4 °F 73% 30.17 in 10.0 mi ENE 9.2 mph - N/A   Scattered Clouds
7:53 PM 17.6 °F 6.4 °F 8.6 °F 68% 30.16 in 10.0 mi East 9.2 mph - N/A   Scattered Clouds
8:13 PM 19.4 °F 8.6 °F 8.6 °F 63% 30.16 in 10.0 mi East 9.2 mph - N/A   Mostly Cloudy
8:33 PM 17.6 °F 6.4 °F 8.6 °F 68% 30.15 in 10.0 mi ENE 9.2 mph - N/A   Mostly Cloudy
8:53 PM 17.6 °F 5.7 °F 10.4 °F 73% 30.14 in 10.0 mi ENE 10.4 mph - N/A   Mostly Cloudy
9:13 PM 17.6 °F 5.7 °F 10.4 °F 73% 30.13 in 10.0 mi ENE 10.4 mph - N/A   Mostly Cloudy
9:33 PM 19.4 °F 7.2 °F 10.4 °F 68% 30.12 in 10.0 mi ENE 11.5 mph - N/A   Mostly Cloudy
10:13 PM 19.4 °F 11.5 °F 10.4 °F 68% 30.11 in 10.0 mi ENE 5.8 mph - N/A   Scattered Clouds
10:33 PM 19.4 °F 10.4 °F 10.4 °F 68% 30.11 in 10.0 mi ENE 6.9 mph - N/A   Scattered Clouds
10:53 PM 19.4 °F 9.5 °F 10.4 °F 68% 30.11 in 10.0 mi ENE 8.1 mph - N/A   Mostly Cloudy
11:13 PM 19.4 °F 12.8 °F 12.2 °F 74% 30.10 in 10.0 mi ENE 4.6 mph - N/A Snow Light Snow
11:33 PM 19.4 °F 12.8 °F 14.0 °F 80% 30.09 in 5.0 mi NNE 4.6 mph - N/A Snow Light Snow
11:53 PM 19.4 °F 11.5 °F 15.8 °F 86% 30.09 in 10.0 mi NNE 5.8 mph - N/A   Overcast